| time (UTC) | temp F | wind direction | speed knots | gust knots | rain 1hr in | rain 24hr in | rain mn in | humidity % | barometer mb |
| 20260504194534 | 73 | 0 | 0.0 | 8.7 | 0.00 | 0.00 | 0.00 | 34 | 1009.3 |
| 20260504194018 | 73 | 277 | 0.9 | 9.6 | 0.00 | 0.00 | 0.00 | 32 | 1009.4 |
| 20260504193519 | 73 | 147 | 2.6 | 14.8 | 0.00 | 0.00 | 0.00 | 31 | 1009.4 |
| 20260504193035 | 73 | 229 | 4.3 | 14.8 | 0.00 | 0.00 | 0.00 | 33 | 1009.5 |
| 20260504192516 | 73 | 284 | 1.7 | 15.6 | 0.00 | 0.00 | 0.00 | 31 | 1009.4 |
| 20260504192018 | 73 | 0 | 0.9 | 15.6 | 0.00 | 0.00 | 0.00 | 34 | 1009.4 |
| 20260504191535 | 73 | 192 | 2.6 | 15.6 | 0.00 | 0.00 | 0.00 | 30 | 1009.5 |
| 20260504191019 | 73 | 184 | 0.9 | 7.8 | 0.00 | 0.00 | 0.00 | 30 | 1009.4 |
| 20260504190517 | 73 | 135 | 1.7 | 12.2 | 0.00 | 0.00 | 0.00 | 32 | 1009.5 |
| 20260504190038 | 73 | 0 | 1.7 | 12.2 | 0.00 | 0.00 | 0.00 | 33 | 1009.6 |
| 20260504185517 | 73 | 267 | 0.9 | 7.8 | 0.00 | 0.00 | 0.00 | 31 | 1009.7 |
| 20260504185015 | 72 | 281 | 0.0 | 11.3 | 0.00 | 0.00 | 0.00 | 35 | 1009.8 |
| 20260504184535 | 72 | 266 | 2.6 | 13.9 | 0.00 | 0.00 | 0.00 | 30 | 1009.9 |
| 20260504184015 | 72 | 243 | 1.7 | 13.9 | 0.00 | 0.00 | 0.00 | 31 | 1010.0 |
| 20260504183517 | 72 | 227 | 1.7 | 9.6 | 0.00 | 0.00 | 0.00 | 32 | 1010.0 |
| 20260504183036 | 72 | 269 | 2.6 | 10.4 | 0.00 | 0.00 | 0.00 | 31 | 1010.0 |
| 20260504182515 | 71 | 235 | 1.7 | 10.4 | 0.00 | 0.00 | 0.00 | 32 | 1010.1 |
| 20260504182017 | 71 | 324 | 3.5 | 11.3 | 0.00 | 0.00 | 0.00 | 31 | 1010.3 |
| 20260504181534 | 71 | 288 | 2.6 | 11.3 | 0.00 | 0.00 | 0.00 | 32 | 1010.2 |
| 20260504181017 | 72 | 37 | 1.7 | 9.6 | 0.00 | 0.00 | 0.00 | 31 | 1010.2 |
| 20260504180518 | 72 | 283 | 1.7 | 9.6 | 0.00 | 0.00 | 0.00 | 32 | 1010.3 |
| 20260504180034 | 72 | 266 | 2.6 | 11.3 | 0.00 | 0.00 | 0.00 | 33 | 1010.5 |
| 20260504175518 | 71 | 318 | 1.7 | 12.2 | 0.00 | 0.00 | 0.00 | 33 | 1010.4 |
| 20260504175017 | 71 | 205 | 4.3 | 12.2 | 0.00 | 0.00 | 0.00 | 31 | 1010.4 |
| 20260504174538 | 71 | 261 | 1.7 | 12.2 | 0.00 | 0.00 | 0.00 | 32 | 1010.6 |
| 20260504174016 | 71 | 178 | 1.7 | 11.3 | 0.00 | 0.00 | 0.00 | 34 | 1010.6 |
| 20260504173518 | 71 | 236 | 2.6 | 11.3 | 0.00 | 0.00 | 0.00 | 33 | 1010.7 |
| 20260504173039 | 71 | 224 | 0.9 | 9.6 | 0.00 | 0.00 | 0.00 | 34 | 1010.8 |
| 20260504172518 | 70 | 352 | 0.9 | 9.6 | 0.00 | 0.00 | 0.00 | 34 | 1010.9 |
| 20260504172018 | 70 | 182 | 1.7 | 11.3 | 0.00 | 0.00 | 0.00 | 35 | 1011.0 |
| 20260504171537 | 70 | 44 | 3.5 | 11.3 | 0.00 | 0.00 | 0.00 | 34 | 1011.3 |
| 20260504171024 | 70 | 277 | 1.7 | 10.4 | 0.00 | 0.00 | 0.00 | 33 | 1011.2 |
| 20260504170517 | 70 | 273 | 1.7 | 10.4 | 0.00 | 0.00 | 0.00 | 35 | 1011.0 |
| 20260504151016 | 66 | 0 | 1.7 | 8.7 | 0.00 | 0.00 | 0.00 | 38 | 1012.6 |
| 20260504150517 | 66 | 349 | 1.7 | 12.2 | 0.00 | 0.00 | 0.00 | 43 | 1012.4 |
| 20260504141016 | 64 | 312 | 1.7 | 7.8 | 0.00 | 0.00 | 0.00 | 44 | 1012.8 |
| 20260504140517 | 64 | 171 | 2.6 | 8.7 | 0.00 | 0.00 | 0.00 | 43 | 1012.6 |
| 20260504130521 | 59 | 0 | 0.9 | 7.8 | 0.00 | 0.00 | 0.00 | 54 | 1013.5 |
| 20260504110518 | 46 | 0 | 0.0 | 2.6 | 0.00 | 0.00 | 0.00 | 65 | 1014.1 |
| 20260504100515 | 42 | 0 | 0.0 | 0.9 | 0.00 | 0.00 | 0.00 | 66 | 1013.7 |
| 20260504081535 | 44 | 0 | 0.0 | 2.6 | 0.00 | 0.00 | 0.00 | 63 | 1013.3 |
| 20260504081015 | 44 | 0 | 0.0 | 2.6 | 0.00 | 0.00 | 0.00 | 63 | 1013.4 |
| 20260504080515 | 44 | 0 | 0.0 | 0.9 | 0.00 | 0.00 | 0.00 | 64 | 1013.4 |
| 20260504050521 | 45 | 0 | 0.0 | 0.0 | 0.00 | 0.00 | 0.00 | 62 | 1013.0 |
| 20260504045516 | 46 | 0 | 0.0 | 0.9 | 0.00 | 0.00 | 0.00 | 59 | 1013.0 |
| 20260504045016 | 46 | 0 | 0.0 | 0.9 | 0.00 | 0.00 | 0.00 | 59 | 1013.0 |
| 20260504044536 | 46 | 0 | 0.0 | 0.0 | 0.00 | 0.00 | 0.00 | 58 | 1012.9 |
| 20260504044020 | 46 | 0 | 0.0 | 0.0 | 0.00 | 0.00 | 0.00 | 58 | 1013.0 |
| 20260504043517 | 46 | 0 | 0.0 | 0.0 | 0.00 | 0.00 | 0.00 | 57 | 1013.0 |
| 20260504043035 | 46 | 0 | 0.0 | 0.0 | 0.00 | 0.00 | 0.00 | 57 | 1012.9 |
| 20260504042519 | 46 | 0 | 0.0 | 0.0 | 0.00 | 0.00 | 0.00 | 57 | 1012.9 |
| 20260504042018 | 46 | 0 | 0.0 | 0.9 | 0.00 | 0.00 | 0.00 | 58 | 1013.0 |
| 20260504041542 | 46 | 0 | 0.0 | 0.9 | 0.00 | 0.00 | 0.00 | 59 | 1012.9 |
| 20260504041019 | 46 | 0 | 0.0 | 0.0 | 0.00 | 0.00 | 0.00 | 59 | 1012.9 |
| 20260504040518 | 46 | 0 | 0.0 | 0.0 | 0.00 | 0.00 | 0.00 | 58 | 1012.7 |
| 20260504040041 | 46 | 0 | 0.0 | 0.0 | 0.00 | 0.00 | 0.00 | 59 | 1012.7 |
| 20260504035517 | 46 | 0 | 0.0 | 0.0 | 0.00 | 0.00 | 0.00 | 59 | 1012.6 |
| 20260504035016 | 46 | 0 | 0.0 | 0.0 | 0.00 | 0.00 | 0.00 | 59 | 1012.5 |
| 20260504034541 | 46 | 0 | 0.0 | 0.0 | 0.00 | 0.00 | 0.00 | 59 | 1012.4 |
| 20260504034020 | 46 | 0 | 0.0 | 0.0 | 0.00 | 0.00 | 0.00 | 58 | 1012.5 |
| 20260504033519 | 46 | 0 | 0.0 | 0.0 | 0.00 | 0.00 | 0.00 | 58 | 1012.5 |
| 20260504033036 | 46 | 0 | 0.0 | 0.0 | 0.00 | 0.00 | 0.00 | 58 | 1012.4 |
| 20260504032518 | 46 | 0 | 0.0 | 0.0 | 0.00 | 0.00 | 0.00 | 58 | 1012.4 |
| 20260504032018 | 46 | 0 | 0.0 | 0.0 | 0.00 | 0.00 | 0.00 | 59 | 1012.4 |
| 20260504031535 | 46 | 0 | 0.0 | 0.0 | 0.00 | 0.00 | 0.00 | 56 | 1012.5 |
| 20260504031016 | 46 | 0 | 0.0 | 0.0 | 0.00 | 0.00 | 0.00 | 56 | 1012.4 |
| 20260504030516 | 47 | 0 | 0.0 | 0.0 | 0.00 | 0.00 | 0.00 | 57 | 1012.4 |
| 20260504030037 | 47 | 0 | 0.0 | 0.0 | 0.00 | 0.00 | 0.00 | 57 | 1012.4 |
| 20260504025517 | 47 | 0 | 0.0 | 0.0 | 0.00 | 0.00 | 0.00 | 56 | 1012.4 |
| 20260504025016 | 48 | 0 | 0.0 | 0.0 | 0.00 | 0.00 | 0.00 | 55 | 1012.4 |
| 20260504024539 | 48 | 0 | 0.0 | 0.0 | 0.00 | 0.00 | 0.00 | 55 | 1012.3 |
| 20260504024016 | 48 | 0 | 0.0 | 0.0 | 0.00 | 0.00 | 0.00 | 55 | 1012.4 |
| 20260504023518 | 48 | 0 | 0.0 | 0.0 | 0.00 | 0.00 | 0.00 | 53 | 1012.3 |
| 20260504023031 | 48 | 0 | 0.0 | 0.0 | 0.00 | 0.00 | 0.00 | 53 | 1012.4 |
| 20260504022521 | 49 | 0 | 0.0 | 0.0 | 0.00 | 0.00 | 0.00 | 53 | 1012.4 |
| 20260504022017 | 49 | 0 | 0.0 | 0.0 | 0.00 | 0.00 | 0.00 | 51 | 1012.4 |
| 20260504021539 | 49 | 0 | 0.0 | 0.0 | 0.00 | 0.00 | 0.00 | 51 | 1012.4 |
| 20260504021016 | 49 | 0 | 0.0 | 0.0 | 0.00 | 0.00 | 0.00 | 50 | 1012.5 |
| 20260504020517 | 50 | 0 | 0.0 | 0.0 | 0.00 | 0.00 | 0.00 | 50 | 1012.4 |
| 20260504020041 | 50 | 0 | 0.0 | 0.0 | 0.00 | 0.00 | 0.00 | 49 | 1012.4 |
| 20260504015519 | 50 | 0 | 0.0 | 0.9 | 0.00 | 0.00 | 0.00 | 49 | 1012.4 |
| 20260504015017 | 50 | 0 | 0.0 | 0.9 | 0.00 | 0.00 | 0.00 | 49 | 1012.5 |
| 20260504014537 | 50 | 0 | 0.0 | 0.0 | 0.00 | 0.00 | 0.00 | 49 | 1012.3 |
| 20260504014019 | 50 | 0 | 0.0 | 0.0 | 0.00 | 0.00 | 0.00 | 48 | 1012.3 |
| 20260504013516 | 50 | 0 | 0.0 | 0.0 | 0.00 | 0.00 | 0.00 | 48 | 1012.3 |
| 20260504013046 | 50 | 0 | 0.0 | 0.0 | 0.00 | 0.00 | 0.00 | 48 | 1012.2 |
| 20260504012518 | 50 | 0 | 0.0 | 0.9 | 0.00 | 0.00 | 0.00 | 48 | 1012.1 |
| 20260504012018 | 50 | 0 | 0.0 | 0.9 | 0.00 | 0.00 | 0.00 | 49 | 1012.1 |
| 20260504011532 | 51 | 0 | 0.0 | 0.0 | 0.00 | 0.00 | 0.00 | 48 | 1012.1 |
| 20260504011018 | 51 | 0 | 0.0 | 0.0 | 0.00 | 0.00 | 0.00 | 47 | 1012.0 |
| 20260504010519 | 51 | 0 | 0.0 | 0.0 | 0.00 | 0.00 | 0.00 | 46 | 1011.8 |
| 20260504010040 | 52 | 0 | 0.0 | 0.0 | 0.00 | 0.00 | 0.00 | 45 | 1011.8 |
| 20260504005518 | 52 | 0 | 0.0 | 0.0 | 0.00 | 0.00 | 0.00 | 44 | 1011.7 |
| 20260504005018 | 53 | 0 | 0.0 | 0.0 | 0.00 | 0.00 | 0.00 | 42 | 1011.8 |
| 20260504004536 | 53 | 0 | 0.0 | 0.0 | 0.00 | 0.00 | 0.00 | 41 | 1011.6 |
| 20260504004017 | 54 | 0 | 0.0 | 0.0 | 0.00 | 0.00 | 0.00 | 41 | 1011.7 |
| 20260504003517 | 54 | 0 | 0.0 | 0.0 | 0.00 | 0.00 | 0.00 | 40 | 1011.5 |
| 20260504003035 | 54 | 0 | 0.0 | 0.0 | 0.00 | 0.00 | 0.00 | 39 | 1011.5 |
| 20260504002518 | 55 | 0 | 0.0 | 0.0 | 0.00 | 0.00 | 0.00 | 38 | 1011.5 |
| 20260504002017 | 56 | 0 | 0.0 | 0.0 | 0.00 | 0.00 | 0.00 | 37 | 1011.4 |
| 20260504001538 | 56 | 0 | 0.0 | 0.9 | 0.00 | 0.00 | 0.00 | 35 | 1011.3 |
| 20260504001016 | 56 | 0 | 0.0 | 1.7 | 0.00 | 0.00 | 0.00 | 35 | 1011.2 |
| 20260504000518 | 57 | 0 | 0.0 | 1.7 | 0.00 | 0.00 | 0.00 | 34 | 1011.3 |
| 20260504000034 | 57 | 0 | 0.0 | 1.7 | 0.00 | 0.00 | 0.00 | 34 | 1011.2 |
| 20260503235518 | 57 | 0 | 0.0 | 1.7 | 0.00 | 0.00 | 0.00 | 34 | 1011.1 |
| 20260503235018 | 58 | 0 | 0.0 | 2.6 | 0.00 | 0.00 | 0.00 | 33 | 1011.0 |
| 20260503234538 | 58 | 0 | 0.0 | 7.0 | 0.00 | 0.00 | 0.00 | 32 | 1011.1 |
| 20260503234018 | 58 | 0 | 0.9 | 10.4 | 0.00 | 0.00 | 0.00 | 31 | 1010.9 |
| 20260503233516 | 58 | 0 | 0.9 | 10.4 | 0.00 | 0.00 | 0.00 | 31 | 1011.0 |
| 20260503233036 | 59 | 272 | 0.9 | 13.0 | 0.00 | 0.00 | 0.00 | 30 | 1011.0 |
| 20260503232520 | 59 | 0 | 1.7 | 13.0 | 0.00 | 0.00 | 0.00 | 30 | 1010.8 |
| 20260503232017 | 59 | 311 | 2.6 | 13.0 | 0.00 | 0.00 | 0.00 | 29 | 1010.8 |
| 20260503231536 | 59 | 0 | 2.6 | 10.4 | 0.00 | 0.00 | 0.00 | 29 | 1010.9 |
| 20260503231019 | 60 | 299 | 0.9 | 13.0 | 0.00 | 0.00 | 0.00 | 30 | 1010.8 |
| 20260503230519 | 60 | 286 | 2.6 | 13.0 | 0.00 | 0.00 | 0.00 | 29 | 1010.7 |
| 20260503230040 | 60 | 0 | 0.0 | 10.4 | 0.00 | 0.00 | 0.00 | 29 | 1010.8 |
| 20260503225516 | 60 | 11 | 1.7 | 10.4 | 0.00 | 0.00 | 0.00 | 28 | 1010.7 |
| 20260503225017 | 60 | 288 | 1.7 | 10.4 | 0.00 | 0.00 | 0.00 | 29 | 1010.7 |
| 20260503224533 | 60 | 279 | 2.6 | 10.4 | 0.00 | 0.00 | 0.00 | 28 | 1010.5 |
| 20260503224020 | 60 | 21 | 1.7 | 10.4 | 0.00 | 0.00 | 0.00 | 28 | 1010.6 |
| 20260503223518 | 61 | 315 | 3.5 | 11.3 | 0.00 | 0.00 | 0.00 | 27 | 1010.6 |
| 20260503223033 | 61 | 305 | 3.5 | 11.3 | 0.00 | 0.00 | 0.00 | 27 | 1010.5 |
| 20260503222517 | 61 | 303 | 1.7 | 12.2 | 0.00 | 0.00 | 0.00 | 28 | 1010.6 |
| 20260503222018 | 61 | 306 | 1.7 | 12.2 | 0.00 | 0.00 | 0.00 | 28 | 1010.5 |
| 20260503221532 | 61 | 294 | 1.7 | 9.6 | 0.00 | 0.00 | 0.00 | 28 | 1010.3 |
| 20260503221018 | 61 | 321 | 1.7 | 9.6 | 0.00 | 0.00 | 0.00 | 27 | 1010.5 |
| 20260503220519 | 61 | 0 | 2.6 | 9.6 | 0.00 | 0.00 | 0.00 | 28 | 1010.6 |
| 20260503220036 | 61 | 0 | 1.7 | 10.4 | 0.00 | 0.00 | 0.00 | 28 | 1010.6 |
| 20260503215518 | 60 | 0 | 0.9 | 12.2 | 0.00 | 0.00 | 0.00 | 27 | 1010.7 |
| 20260503215016 | 60 | 277 | 2.6 | 12.2 | 0.00 | 0.00 | 0.00 | 27 | 1010.7 |
| 20260503214540 | 60 | 311 | 2.6 | 10.4 | 0.00 | 0.00 | 0.00 | 28 | 1010.6 |
| 20260503214019 | 61 | 14 | 1.7 | 9.6 | 0.00 | 0.00 | 0.00 | 28 | 1010.6 |
| 20260503213518 | 60 | 0 | 0.9 | 13.9 | 0.00 | 0.00 | 0.00 | 30 | 1010.5 |
| 20260503213039 | 60 | 284 | 2.6 | 13.9 | 0.00 | 0.00 | 0.00 | 27 | 1010.6 |
| 20260503212521 | 61 | 263 | 3.5 | 13.9 | 0.00 | 0.00 | 0.00 | 27 | 1010.6 |
| 20260503212018 | 60 | 0 | 1.7 | 10.4 | 0.00 | 0.00 | 0.00 | 27 | 1010.3 |
| 20260503211542 | 60 | 262 | 0.9 | 12.2 | 0.00 | 0.00 | 0.00 | 29 | 1010.4 |
| 20260503211020 | 59 | 5 | 0.9 | 16.5 | 0.00 | 0.00 | 0.00 | 29 | 1010.5 |
| 20260503210517 | 59 | 5 | 4.3 | 16.5 | 0.00 | 0.00 | 0.00 | 27 | 1010.7 |
| 20260503210039 | 60 | 276 | 2.6 | 14.8 | 0.00 | 0.00 | 0.00 | 27 | 1010.7 |
| 20260503205518 | 60 | 360 | 3.5 | 13.9 | 0.00 | 0.00 | 0.00 | 27 | 1010.6 |
| 20260503205017 | 60 | 296 | 2.6 | 13.0 | 0.00 | 0.00 | 0.00 | 30 | 1010.5 |
| 20260503204537 | 60 | 306 | 4.3 | 13.0 | 0.00 | 0.00 | 0.00 | 27 | 1010.5 |
| 20260503204019 | 60 | 321 | 3.5 | 13.0 | 0.00 | 0.00 | 0.00 | 29 | 1010.6 |
| 20260503203524 | 60 | 272 | 4.3 | 13.0 | 0.00 | 0.00 | 0.00 | 30 | 1010.7 |
| 20260503203038 | 60 | 314 | 3.5 | 13.0 | 0.00 | 0.00 | 0.00 | 30 | 1010.7 |
| 20260503202519 | 59 | 9 | 2.6 | 10.4 | 0.00 | 0.00 | 0.00 | 30 | 1010.6 |
| 20260503202016 | 59 | 321 | 2.6 | 11.3 | 0.00 | 0.00 | 0.00 | 30 | 1010.8 |
| 20260503201534 | 59 | 304 | 0.0 | 11.3 | 0.00 | 0.00 | 0.00 | 29 | 1010.8 |
| 20260503201052 | 59 | 294 | 3.5 | 13.9 | 0.00 | 0.00 | 0.00 | 28 | 1010.8 |
| 20260503200520 | 59 | 298 | 2.6 | 13.9 | 0.00 | 0.00 | 0.00 | 30 | 1011.0 |
| 20260503200033 | 58 | 321 | 4.3 | 13.9 | 0.00 | 0.00 | 0.00 | 30 | 1010.9 |
| 20260503195516 | 58 | 65 | 2.6 | 11.3 | 0.00 | 0.00 | 0.00 | 31 | 1010.9 |
| 20260503195020 | 58 | 306 | 2.6 | 11.3 | 0.00 | 0.00 | 0.00 | 30 | 1010.7 |